This is the latest recevied weather packets stored in our database for station/object N4TLC. If no packets are shown the sender has not sent any weather packets the latest 10 day(s).
| Time | Temp. | Humidity | Pressure | Rain* | Wind** | Luminosity | Snow |
|---|---|---|---|---|---|---|---|
| 1777858983 | 11.11° C | 53% | 1017.9 hPa | 0 mm | - | 0 W/m² | - |
| 1777858681 | 11.11° C | 53% | 1018.2 hPa | 0 mm | - | 0 W/m² | - |
| 1777858379 | 11.11° C | 53% | 1018.1 hPa | 0 mm | - | 0 W/m² | - |
| 1777858075 | 11.11° C | 52% | 1018.2 hPa | 0 mm | - | 0 W/m² | - |
| 1777857774 | 11.67° C | 51% | 1018.1 hPa | 0 mm | - | 0 W/m² | - |
| 1777857470 | 11.67° C | 51% | 1018.1 hPa | 0 mm | - | 0 W/m² | - |
| 1777857167 | 11.67° C | 49% | 1018.2 hPa | 0 mm | - | 0 W/m² | - |
| 1777856863 | 12.22° C | 49% | 1018 hPa | 0 mm | - | 0 W/m² | - |
| 1777856558 | 12.22° C | 48% | 1018 hPa | 0 mm | - | 0 W/m² | - |
| 1777856255 | 12.78° C | 48% | 1018 hPa | 0 mm | - | 0 W/m² | - |
| 1777855953 | 12.78° C | 47% | 1017.9 hPa | 0 mm | - | 0 W/m² | - |
| 1777855650 | 12.78° C | 46% | 1018 hPa | 0 mm | - | 0 W/m² | - |
| 1777855347 | 13.33° C | 46% | 1018 hPa | 0 mm | - | 0 W/m² | - |
| 1777855043 | 13.89° C | 45% | 1017.8 hPa | 0 mm | - | 0 W/m² | - |
| 1777854741 | 13.89° C | 43% | 1017.6 hPa | 0 mm | - | 0 W/m² | - |
| 1777854437 | 14.44° C | 43% | 1017.7 hPa | 0 mm | - | 0 W/m² | - |
| 1777854134 | 15° C | 41% | 1017.7 hPa | 0 mm | - | 0 W/m² | - |
| 1777853832 | 15° C | 40% | 1017.6 hPa | 0 mm | - | 1 W/m² | - |
| 1777853529 | 15.56° C | 39% | 1017.6 hPa | 0 mm | - | 2 W/m² | - |
| 1777853225 | 15.56° C | 37% | 1017.6 hPa | 0 mm | - | 4 W/m² | - |
| 1777852922 | 16.11° C | 36% | 1017.6 hPa | 0 mm | - | 7 W/m² | - |
| 1777852621 | 16.67° C | 34% | 1017.4 hPa | 0 mm | - | 10 W/m² | - |
| 1777852317 | 17.22° C | 33% | 1017.4 hPa | 0 mm | - | 13 W/m² | - |
| 1777852015 | 17.22° C | 31% | 1017.5 hPa | 0 mm | - | 17 W/m² | - |
| 1777851713 | 17.78° C | 30% | 1017.6 hPa | 0 mm | - | 20 W/m² | - |
* Rain latest hour (hover to see other rain measurements)
** Current wind speed in m/s (hover to see current wind gust speed)